Soldotna, AK

10:23 AM AKDT on October 20, 2017 (GMT -0800)
Soldotna

Weather History for PASX - March, 2012

Change the Weather History Date:

Tuesday, March 13, 2012

  Actual Average Record
Temperature  
Mean Temperature 14 °F -  
Max Temperature 26 °F 33 °F 45 °F (1983)
Min Temperature 3 °F 13 °F -23 °F (1964)
Degree Days  
Heating Degree Days 50    
Moisture  
Dew Point 6 °F    
Average Humidity 68    
Maximum Humidity 100    
Minimum Humidity 51    
Precipitation  
Precipitation 0.00 in - - ()
Sea Level Pressure  
Sea Level Pressure 29.03 in    
Wind  
Wind Speed 3 mph (NE)    
Max Wind Speed 10 mph    
Max Gust Speed -    
Visibility 10 miles    
Events      
Averages and records for this station are not official NWS values.
T = Trace of Precipitation, MM = Missing Value Source: NWS Daily Summary

Daily Weather History Graph

Daily Weather History Graph

Search for Another Location

Airport or City:

Trip Planner

Search our weather history database for the weather conditions in past years. The results will help you decide how hot, cold, wet, or windy it might be!

Date:

Astronomy

Mar. 13, 2012 Rise Set
Actual Time 8:24 AM AKDT 8:03 PM AKDT
Civil Twilight 7:42 AM AKDT 8:45 PM AKDT
Nautical Twilight 6:53 AM AKDT 9:35 PM AKDT
Astronomical Twilight 6:00 AM AKDT 10:28 PM AKDT
Moon 3:35 AM AKDT (3/13) 9:55 AM AKDT (3/13)
Length of Visible Light 13h 02m
Length of Day
11h 38m
Waning Gibbous, 64% of the Moon is Illuminated
Mar 13
Waning Gibbous
Mar 14
Last Quarter
Mar 22
New
Mar 30
First Quarter
Apr 6
Full

Hourly Weather History & Observations

Time (AKDT) Temp. Windchill Dew Point Humidity Pressure Visibility Wind Dir Wind Speed Gust Speed Precip Events Conditions
12:16 AM 12.2 °F - 5.0 °F 73% 29.09 in - Calm Calm - N/A   Overcast
12:36 AM 12.2 °F - 5.0 °F 73% 29.09 in - Calm Calm - N/A   Overcast
12:56 AM 12.2 °F - 5.0 °F 73% 29.08 in - Calm Calm - N/A   Overcast
1:16 AM 12.2 °F - 5.0 °F 73% 29.08 in - Calm Calm - N/A   Overcast
1:36 AM 12.2 °F 4.3 °F 6.8 °F 79% 29.08 in - ENE 4.6 mph - N/A   Overcast
1:56 AM 12.2 °F - 5.0 °F 73% 29.07 in 10.0 mi Calm Calm - N/A   Overcast
2:16 AM 12.2 °F 4.3 °F 5.0 °F 73% 29.06 in 10.0 mi East 4.6 mph - N/A   Overcast
2:36 AM 14.0 °F 6.5 °F 8.6 °F 79% 29.05 in 10.0 mi ENE 4.6 mph - N/A   Overcast
2:56 AM 14.0 °F 8.2 °F 5.0 °F 67% 29.05 in 10.0 mi ENE 3.5 mph - N/A   Overcast
3:16 AM 15.8 °F 10.2 °F 5.0 °F 62% 29.05 in 10.0 mi ENE 3.5 mph - N/A   Overcast
3:36 AM 15.8 °F - 5.0 °F 62% 29.04 in 10.0 mi Calm Calm - N/A   Overcast
3:56 AM 15.8 °F 10.2 °F 5.0 °F 62% 29.04 in 10.0 mi ENE 3.5 mph - N/A   Overcast
4:16 AM 14.0 °F 6.5 °F 6.8 °F 73% 29.03 in 10.0 mi ENE 4.6 mph - N/A   Overcast
4:36 AM 14.0 °F 8.2 °F 6.8 °F 73% 29.03 in 10.0 mi ENE 3.5 mph - N/A   Overcast
4:56 AM 14.0 °F 5.1 °F 5.0 °F 67% 29.03 in 10.0 mi ENE 5.8 mph - N/A   Overcast
5:16 AM 12.2 °F 2.9 °F 3.2 °F 67% 29.02 in 10.0 mi NE 5.8 mph - N/A   Mostly Cloudy
5:36 AM 10.4 °F 2.2 °F 1.4 °F 67% 29.02 in 10.0 mi East 4.6 mph - N/A   Scattered Clouds
5:56 AM 8.6 °F - 1.4 °F 73% 29.02 in 10.0 mi Calm Calm - N/A   Partly Cloudy
6:16 AM 6.8 °F - 3.2 °F 85% 29.02 in 10.0 mi Calm Calm - N/A   Mostly Cloudy
6:36 AM 6.8 °F - 6.8 °F 100% 29.02 in 10.0 mi Calm Calm - N/A   Overcast
6:56 AM 5.0 °F - -2.2 °F 72% 29.01 in 10.0 mi Calm Calm - N/A   Mostly Cloudy
7:16 AM 5.0 °F - 1.4 °F 85% 29.01 in 10.0 mi Calm Calm - N/A   Mostly Cloudy
7:36 AM 5.0 °F - 1.4 °F 85% 29.01 in 10.0 mi Calm Calm - N/A   Overcast
7:56 AM 5.0 °F - -2.2 °F 72% 29.01 in 10.0 mi Calm Calm - N/A   Mostly Cloudy
8:16 AM 5.0 °F - 1.4 °F 85% 29.01 in 9.0 mi Calm Calm - N/A   Overcast
8:36 AM 5.0 °F - 1.4 °F 85% 29.02 in 9.0 mi Calm Calm - N/A   Overcast
8:56 AM 5.0 °F - -0.4 °F 78% 29.02 in 9.0 mi Calm Calm - N/A   Overcast
9:16 AM 3.2 °F - -2.2 °F 78% 29.02 in 9.0 mi Calm Calm - N/A   Overcast
9:36 AM 5.0 °F - -0.4 °F 78% 29.02 in 8.0 mi Calm Calm - N/A   Overcast
9:56 AM 6.8 °F - 1.4 °F 79% 29.02 in 7.0 mi Calm Calm - N/A   Overcast
10:16 AM 8.6 °F - 3.2 °F 79% 29.02 in 8.0 mi Calm Calm - N/A   Overcast
10:36 AM 8.6 °F - 3.2 °F 79% 29.02 in 9.0 mi Calm Calm - N/A   Overcast
10:56 AM 10.4 °F - 5.0 °F 79% 29.02 in 9.0 mi Calm Calm - N/A   Overcast
11:16 AM 12.2 °F - 5.0 °F 73% 29.02 in - Calm Calm - N/A   Overcast
11:36 AM 14.0 °F 5.1 °F 6.8 °F 73% 29.02 in 10.0 mi NNE 5.8 mph - N/A   Overcast
11:56 AM 15.8 °F 8.6 °F 5.0 °F 62% 29.02 in 10.0 mi NE 4.6 mph - N/A   Overcast
12:16 PM 17.6 °F 7.3 °F 6.8 °F 63% 29.02 in 10.0 mi NE 8.1 mph - N/A   Overcast
12:36 PM 17.6 °F 10.7 °F 5.0 °F 58% 29.02 in 10.0 mi NNE 4.6 mph - N/A   Overcast
12:56 PM 17.6 °F 7.3 °F 6.8 °F 63% 29.02 in 10.0 mi NE 8.1 mph - N/A   Overcast
1:16 PM 19.4 °F 11.5 °F 6.8 °F 58% 29.02 in 10.0 mi NE 5.8 mph - N/A   Overcast
1:36 PM 19.4 °F 10.4 °F 8.6 °F 63% 29.02 in 10.0 mi NE 6.9 mph - N/A   Overcast
1:56 PM 21.2 °F 11.7 °F 8.6 °F 58% 29.02 in 9.0 mi ENE 8.1 mph - N/A   Overcast
2:16 PM 21.2 °F 12.6 °F 8.6 °F 58% 29.01 in 9.0 mi NE 6.9 mph - N/A   Mostly Cloudy
2:56 PM 24.8 °F 14.6 °F 12.2 °F 59% 29.00 in 10.0 mi NE 10.4 mph - N/A   Overcast
3:16 PM 24.8 °F 15.3 °F 10.4 °F 54% 29.00 in 10.0 mi NE 9.2 mph - N/A   Mostly Cloudy
3:36 PM 24.8 °F 17.9 °F 10.4 °F 54% 29.00 in 10.0 mi NNE 5.8 mph - N/A   Partly Cloudy
3:56 PM 26.6 °F 18.2 °F 12.2 °F 55% 29.00 in 10.0 mi NE 8.1 mph - N/A   Partly Cloudy
4:16 PM 26.6 °F 17.5 °F 14.0 °F 59% 29.00 in 10.0 mi NE 9.2 mph - N/A   Clear
4:36 PM 26.6 °F 20.0 °F 12.2 °F 55% 29.00 in 10.0 mi NE 5.8 mph - N/A   Mostly Cloudy
4:56 PM 26.6 °F 22.6 °F 10.4 °F 51% 29.01 in 10.0 mi North 3.5 mph - N/A   Overcast
5:16 PM 26.6 °F 21.2 °F 10.4 °F 51% 29.01 in 10.0 mi NNE 4.6 mph - N/A   Mostly Cloudy
5:36 PM 26.6 °F 20.0 °F 10.4 °F 51% 29.01 in 10.0 mi NE 5.8 mph - N/A   Mostly Cloudy
5:56 PM 26.6 °F 21.2 °F 12.2 °F 55% 29.02 in 10.0 mi North 4.6 mph - N/A   Overcast
6:16 PM 26.6 °F 20.0 °F 12.2 °F 55% 29.02 in 10.0 mi North 5.8 mph - N/A   Overcast
6:36 PM 24.8 °F 16.1 °F 12.2 °F 59% 29.02 in 10.0 mi NE 8.1 mph - N/A   Overcast
6:56 PM 24.8 °F 16.1 °F 12.2 °F 59% 29.02 in 10.0 mi NNE 8.1 mph - N/A   Overcast
7:16 PM 24.8 °F 16.9 °F 12.2 °F 59% 29.02 in 10.0 mi NE 6.9 mph - N/A   Overcast
7:36 PM 24.8 °F 20.5 °F 10.4 °F 54% 29.02 in 10.0 mi NNE 3.5 mph - N/A   Overcast
7:56 PM 24.8 °F 20.5 °F 12.2 °F 59% 29.02 in 10.0 mi North 3.5 mph - N/A   Overcast
8:16 PM 24.8 °F 19.1 °F 12.2 °F 59% 29.02 in 10.0 mi North 4.6 mph - N/A   Overcast
8:36 PM 23.0 °F 18.4 °F 10.4 °F 59% 29.02 in 10.0 mi NNE 3.5 mph - N/A   Overcast
8:56 PM 23.0 °F - 10.4 °F 59% 29.02 in 10.0 mi Calm Calm - N/A   Overcast
9:16 PM 23.0 °F - 10.4 °F 59% 29.02 in 10.0 mi Calm Calm - N/A   Overcast
9:36 PM 23.0 °F - 10.4 °F 59% 29.01 in 10.0 mi Calm Calm - N/A   Overcast
9:56 PM 21.2 °F - 10.4 °F 63% 29.01 in 10.0 mi Calm Calm - N/A   Overcast
10:16 PM 21.2 °F - 12.2 °F 68% 29.01 in - Calm Calm - N/A   Overcast
10:36 PM 21.2 °F 14.9 °F 12.2 °F 68% 29.01 in - NE 4.6 mph - N/A   Overcast
10:56 PM 21.2 °F 16.4 °F 12.2 °F 68% 29.01 in 10.0 mi NNE 3.5 mph - N/A   Overcast
11:16 PM 21.2 °F 16.4 °F 12.2 °F 68% 29.01 in 10.0 mi NE 3.5 mph - N/A   Overcast
11:36 PM 21.2 °F 14.9 °F 12.2 °F 68% 29.00 in 10.0 mi NE 4.6 mph - N/A   Overcast
11:56 PM 21.2 °F 12.6 °F 14.0 °F 74% 29.00 in 10.0 mi ENE 6.9 mph - N/A   Overcast